• In Hungary
  • List of Countries
  • For 7 days
  • Water Temperature
  • Satellite Maps
  • Weather Map
  • News
  • Weather Widgets
  • user-avatar
    Login

    Hourly Weather Razdolnoe

    Today, 14 August, Tuesday

    Time Temperature Precipitation Wind Pressure Humidity
    00:00 +21°C° 0 mm 2 mps 739 mmHg 72%
    01:00 +20°C° 0 mm 2 mps 739 mmHg 74%
    02:00 +20°C° 0 mm 2 mps 739 mmHg 76%
    03:00 +19°C° 0 mm 2 mps 739 mmHg 77%
    04:00 +19°C° 0 mm 2 mps 739 mmHg 77%
    05:00 +19°C° 0 mm 2 mps 740 mmHg 77%
    06:00 +19°C° 0 mm 2 mps 740 mmHg 77%
    07:00 +20°C° 0 mm 2 mps 740 mmHg 69%
    08:00 +23°C° 0 mm 2 mps 741 mmHg 61%
    09:00 +25°C° 0 mm 3 mps 741 mmHg 54%
    10:00 +26°C° 0 mm 3 mps 741 mmHg 50%
    11:00 +27°C° 0 mm 4 mps 741 mmHg 46%
    12:00 +27°C° 0 mm 4 mps 741 mmHg 42%
    13:00 +27°C° 0 mm 4 mps 741 mmHg 41%
    14:00 +28°C° 0 mm 4 mps 741 mmHg 41%
    15:00 +28°C° 0 mm 5 mps 741 mmHg 40%
    16:00 +27°C° 0 mm 4 mps 741 mmHg 44%
    17:00 +26°C° 0 mm 4 mps 741 mmHg 47%
    18:00 +25°C° 0 mm 3 mps 742 mmHg 51%
    19:00 +24°C° 0 mm 3 mps 742 mmHg 56%
    20:00 +21°C° 0 mm 3 mps 742 mmHg 60%
    21:00 +20°C° 0 mm 2 mps 742 mmHg 65%
    22:00 +19°C° 0 mm 2 mps 743 mmHg 67%
    23:00 +19°C° 0 mm 2 mps 743 mmHg 70%

    Tomorrow, 15 August, Wednesday

    Time Temperature Precipitation Wind Pressure Humidity
    00:00 +19°C° 0 mm 1 mps 743 mmHg 72%
    01:00 +19°C° 0 mm 1 mps 743 mmHg 74%
    02:00 +18°C° 0 mm 1 mps 743 mmHg 76%
    03:00 +18°C° 0 mm 1 mps 744 mmHg 78%
    04:00 +18°C° 0 mm 1 mps 744 mmHg 77%
    05:00 +18°C° 0 mm 1 mps 744 mmHg 77%
    06:00 +18°C° 0 mm 1 mps 744 mmHg 76%
    07:00 +20°C° 0 mm 1 mps 744 mmHg 69%
    08:00 +22°C° 0 mm 1 mps 745 mmHg 61%
    09:00 +24°C° 0 mm 1 mps 745 mmHg 54%
    10:00 +23°C° 0 mm 0 mps 745 mmHg 48%
    11:00 +24°C° 0 mm 0 mps 745 mmHg 43%
    12:00 +26°C° 0 mm 0 mps 745 mmHg 37%
    13:00 +26°C° 0 mm 0 mps 745 mmHg 36%
    14:00 +26°C° 0 mm 0 mps 745 mmHg 34%
    15:00 +29°C° 0 mm 1 mps 744 mmHg 32%
    16:00 +28°C° 0 mm 1 mps 744 mmHg 35%
    17:00 +26°C° 0 mm 0 mps 744 mmHg 37%
    18:00 +26°C° 0 mm 0 mps 744 mmHg 40%
    19:00 +26°C° 0 mm 1 mps 744 mmHg 41%
    20:00 +24°C° 0 mm 1 mps 744 mmHg 43%
    21:00 +23°C° 0 mm 1 mps 744 mmHg 44%
    22:00 +22°C° 0 mm 1 mps 744 mmHg 45%
    23:00 +21°C° 0 mm 2 mps 744 mmHg 46%

    Day after tomorrow, 16 August, Thursday

    Time Temperature Precipitation Wind Pressure Humidity
    00:00 +20°C° 0 mm 2 mps 744 mmHg 47%
    01:00 +20°C° 0 mm 2 mps 744 mmHg 48%
    02:00 +20°C° 0 mm 2 mps 744 mmHg 48%
    03:00 +19°C° 0 mm 2 mps 744 mmHg 49%
    04:00 +20°C° 0 mm 2 mps 744 mmHg 51%
    05:00 +20°C° 0 mm 2 mps 744 mmHg 52%
    06:00 +20°C° 0 mm 2 mps 744 mmHg 54%
    07:00 +23°C° 0 mm 2 mps 744 mmHg 49%
    08:00 +25°C° 0 mm 2 mps 744 mmHg 44%
    09:00 +27°C° 0 mm 3 mps 744 mmHg 39%
    10:00 +28°C° 0 mm 3 mps 744 mmHg 38%
    11:00 +29°C° 0 mm 3 mps 744 mmHg 36%
    12:00 +30°C° 0 mm 3 mps 744 mmHg 34%
    13:00 +31°C° 0 mm 3 mps 744 mmHg 33%
    14:00 +31°C° 0 mm 2 mps 743 mmHg 32%
    15:00 +31°C° 0 mm 2 mps 743 mmHg 31%
    16:00 +31°C° 0 mm 2 mps 743 mmHg 34%
    17:00 +30°C° 0 mm 1 mps 743 mmHg 37%
    18:00 +30°C° 0 mm 1 mps 742 mmHg 40%
    19:00 +28°C° 0 mm 1 mps 742 mmHg 42%
    20:00 +26°C° 0 mm 1 mps 742 mmHg 44%
    21:00 +23°C° 0 mm 0 mps 742 mmHg 46%
    22:00 +24°C° 0 mm 1 mps 742 mmHg 47%
    23:00 +24°C° 0 mm 1 mps 742 mmHg 47%

    17 August, Friday

    Time Temperature Precipitation Wind Pressure Humidity
    00:00 +24°C° 0 mm 1 mps 742 mmHg 48%
    01:00 +23°C° 0 mm 1 mps 742 mmHg 48%
    02:00 +23°C° 0 mm 1 mps 742 mmHg 49%
    03:00 +23°C° 0 mm 1 mps 742 mmHg 49%
    04:00 +23°C° 0 mm 1 mps 742 mmHg 50%
    05:00 +23°C° 0 mm 1 mps 742 mmHg 52%
    06:00 +23°C° 0 mm 1 mps 742 mmHg 53%
    07:00 +24°C° 0 mm 2 mps 742 mmHg 52%
    08:00 +25°C° 0 mm 2 mps 742 mmHg 52%
    09:00 +26°C° 0 mm 2 mps 742 mmHg 51%
    10:00 +27°C° 0 mm 2 mps 742 mmHg 49%
    11:00 +28°C° 0 mm 2 mps 742 mmHg 47%
    12:00 +29°C° 0 mm 2 mps 742 mmHg 45%
    13:00 +29°C° 0 mm 2 mps 742 mmHg 44%
    14:00 +30°C° 0 mm 2 mps 742 mmHg 42%
    15:00 +30°C° 0 mm 3 mps 742 mmHg 41%
    16:00 +29°C° 0.1 mm 4 mps 742 mmHg 49%
    17:00 +27°C° 0.1 mm 5 mps 742 mmHg 57%
    18:00 +25°C° 0.1 mm 5 mps 742 mmHg 64%
    19:00 +23°C° 0.7 mm 5 mps 742 mmHg 71%
    20:00 +21°C° 0.7 mm 5 mps 742 mmHg 77%
    21:00 +19°C° 0.7 mm 4 mps 742 mmHg 84%
    22:00 +19°C° 0.1 mm 4 mps 742 mmHg 84%
    23:00 +18°C° 0.1 mm 4 mps 743 mmHg 84%

    18 August, Saturday

    Time Temperature Precipitation Wind Pressure Humidity
    00:00 +17°C° 0.1 mm 4 mps 743 mmHg 84%
    01:00 +17°C° 0 mm 4 mps 743 mmHg 84%
    02:00 +15°C° 0 mm 4 mps 743 mmHg 85%
    03:00 +15°C° 0 mm 4 mps 743 mmHg 85%
    04:00 +15°C° 0 mm 4 mps 743 mmHg 84%
    05:00 +14°C° 0 mm 5 mps 744 mmHg 82%
    06:00 +14°C° 0 mm 5 mps 744 mmHg 81%
    07:00 +15°C° 0 mm 5 mps 744 mmHg 71%
    08:00 +17°C° 0 mm 6 mps 744 mmHg 61%
    09:00 +19°C° 0 mm 6 mps 745 mmHg 52%
    10:00 +20°C° 0 mm 6 mps 745 mmHg 48%
    11:00 +21°C° 0 mm 6 mps 745 mmHg 45%
    12:00 +22°C° 0 mm 6 mps 745 mmHg 41%
    13:00 +22°C° 0 mm 6 mps 745 mmHg 41%
    14:00 +22°C° 0 mm 6 mps 745 mmHg 41%
    15:00 +22°C° 0 mm 6 mps 744 mmHg 40%
    16:00 +22°C° 0 mm 5 mps 745 mmHg 43%
    17:00 +21°C° 0 mm 5 mps 745 mmHg 46%
    18:00 +21°C° 0 mm 4 mps 745 mmHg 49%
    19:00 +19°C° 0 mm 4 mps 745 mmHg 53%
    20:00 +17°C° 0 mm 4 mps 745 mmHg 57%
    21:00 +16°C° 0 mm 3 mps 745 mmHg 60%
    22:00 +14°C° 0 mm 3 mps 745 mmHg 63%
    23:00 +14°C° 0 mm 3 mps 745 mmHg 65%

    19 August, Sunday

    Time Temperature Precipitation Wind Pressure Humidity
    00:00 +13°C° 0 mm 3 mps 746 mmHg 68%
    01:00 +12°C° 0 mm 3 mps 746 mmHg 71%
    02:00 +12°C° 0 mm 3 mps 746 mmHg 73%
    03:00 +11°C° 0 mm 3 mps 746 mmHg 76%
    04:00 +11°C° 0 mm 3 mps 746 mmHg 77%
    05:00 +11°C° 0 mm 3 mps 746 mmHg 77%
    06:00 +11°C° 0 mm 3 mps 746 mmHg 78%
    07:00 +13°C° 0 mm 3 mps 746 mmHg 69%
    08:00 +15°C° 0 mm 4 mps 746 mmHg 61%
    09:00 +17°C° 0 mm 4 mps 746 mmHg 52%
    10:00 +19°C° 0 mm 5 mps 746 mmHg 48%
    11:00 +20°C° 0 mm 5 mps 746 mmHg 44%
    12:00 +21°C° 0 mm 5 mps 746 mmHg 40%
    13:00 +22°C° 0 mm 5 mps 745 mmHg 39%
    14:00 +22°C° 0 mm 5 mps 745 mmHg 38%
    15:00 +23°C° 0 mm 5 mps 745 mmHg 37%
    16:00 +22°C° 0 mm 4 mps 745 mmHg 40%
    17:00 +21°C° 0 mm 4 mps 745 mmHg 43%
    18:00 +21°C° 0 mm 3 mps 745 mmHg 47%
    19:00 +19°C° 0 mm 3 mps 745 mmHg 51%
    20:00 +17°C° 0 mm 3 mps 745 mmHg 55%
    21:00 +16°C° 0 mm 2 mps 745 mmHg 58%
    22:00 +15°C° 0 mm 2 mps 745 mmHg 60%
    23:00 +15°C° 0 mm 2 mps 745 mmHg 62%
    Show more